Terug naar catalogus

STARLINK-32590

ActiefCommunicatieVLEO
NORAD 63047·PAYLOAD·🇺🇸 United States

Gelanceerd Feb 18, 2025 vanaf Cape Canaveral Space Force Station

Loading…

Volgende Passages (komende 24 uur)

TLE

VersSource: CelesTrak SupGP

Epoch: Sep 15, 2026, 02:55 UTC

1 63047C 25034U   26258.12201389  .00000153  00000+0  49068-5 0  2581
2 63047  53.1565  97.8713 0001165  87.9193 314.5398 15.31703115    13

Volg STARLINK-32590 in realtime met AllMySat

Download on the App Store